RH
32 32 33 33 34 35 35 36 39 40 41 42 44 45 46 48 50 51 54 56 58 60 62 63 65 66 67 68 69 69 70 70 70 70 70 71 72 73 72 73 74 71 68 69 70 69 68 66 65 67 70 73 74 73 73 74 76 77 76 74 72 72 72
33 34 35 35 35 36 36 37 39 40 42 44 45 47 49 51 52 55 59 61 61 62 65 68 71 72 73 73 74 75 76 75 75 75 75 76 76 76 77 76 77 76 73 72 74 75 74 72 71 71 72 75 77 77 76 76 78 78 78 78 77 76 74
34 35 35 36 36 36 37 38 39 41 42 45 48 49 51 54 56 58 63 67 66 65 67 70 73 75 75 75 76 77 77 77 77 76 77 77 77 78 78 78 78 78 76 74 75 77 77 77 78 77 76 76 77 78 78 77 76 77 78 78 78 78 77
35 35 36 37 37 38 38 39 40 41 43 46 50 53 54 56 59 61 65 70 73 72 70 71 72 74 75 76 76 76 76 76 76 76 76 77 77 77 78 79 79 80 78 76 76 78 79 79 79 79 78 78 78 78 77 77 75 73 75 77 77 78 78
35 35 36 37 38 38 39 40 41 42 44 47 51 55 58 59 61 63 65 70 75 77 76 75 73 74 75 76 75 74 74 74 75 76 76 77 78 78 79 79 80 81 81 80 80 81 81 80 77 77 77 77 78 77 76 76 75 72 72 74 76 77 78
34 35 36 37 38 39 39 40 42 43 45 46 49 54 59 62 63 63 65 70 75 78 79 79 77 76 76 76 76 75 74 74 75 77 79 82 83 83 84 83 84 84 84 83 85 87 86 83 79 78 79 79 78 78 76 75 74 74 74 74 74 76 79
35 36 37 37 38 38 39 40 41 43 44 46 49 51 55 61 64 65 66 70 74 77 79 79 79 77 77 77 78 79 79 79 80 81 84 87 89 90 91 90 90 90 89 88 89 91 91 89 86 83 83 84 83 82 81 78 77 78 78 77 76 76 77
34 36 37 39 39 39 39 39 40 41 42 44 47 48 52 58 63 64 66 70 73 76 78 78 79 78 77 78 81 83 85 86 87 88 90 92 93 93 93 93 93 93 93 93 92 93 94 93 91 89 88 88 88 87 87 86 85 85 84 84 83 82 81
30 31 33 36 38 39 40 40 40 41 41 42 44 48 54 59 61 62 65 68 71 74 76 77 78 79 79 78 79 83 86 87 88 90 91 92 93 93 93 93 93 93 93 93 93 94 94 94 93 92 91 90 90 90 90 89 90 90 90 89 89 88 87
28 29 29 30 32 34 36 38 39 40 41 42 45 51 57 59 58 59 62 66 69 71 74 76 78 80 80 78 77 80 83 85 87 88 89 90 91 93 95 94 93 93 93 94 93 93 93 94 93 93 92 91 91 91 91 90 90 91 90 90 90 90 89
28 28 29 29 30 30 32 34 35 37 39 41 42 49 56 57 56 57 59 62 66 69 72 76 78 78 78 77 76 77 80 82 84 85 87 88 89 90 93 94 93 93 94 94 94 94 93 93 93 92 92 92 91 90 91 90 90 90 90 89 88 89 88
27 27 28 29 29 30 30 32 34 34 36 37 38 44 53 55 53 54 56 59 65 69 70 72 73 73 75 75 75 75 77 80 81 82 84 85 88 89 90 91 93 93 94 95 96 95 94 94 94 92 92 92 92 91 90 89 89 88 88 88 88 88 88
28 28 28 28 28 29 29 30 32 33 35 36 36 41 48 50 49 50 52 56 62 66 66 64 63 66 71 73 74 74 75 77 78 79 80 82 84 86 87 88 90 91 92 94 96 96 96 96 96 94 94 95 94 92 91 91 90 88 87 87 87 87 88
28 28 29 30 29 30 29 29 30 30 32 35 35 39 46 48 47 46 48 51 55 57 55 54 55 59 64 69 72 72 73 76 76 75 78 82 84 85 85 85 86 88 91 95 97 98 98 98 98 97 97 97 95 94 95 95 92 89 87 86 85 85 86
30 31 31 32 32 31 31 31 32 31 32 33 33 38 47 48 45 45 44 44 46 47 47 47 48 50 54 61 66 68 70 72 74 76 80 85 87 86 84 84 86 87 91 96 98 98 98 98 98 98 98 97 96 95 95 93 90 88 87 86 85 85 85
32 33 33 34 34 34 33 33 33 33 33 34 33 38 45 45 44 45 44 42 40 39 40 42 43 43 45 50 57 63 66 66 70 78 84 86 85 84 84 85 86 86 89 92 94 94 95 96 96 96 97 96 94 92 90 87 85 84 84 84 85 85 85
34 35 35 35 36 36 35 35 36 35 34 34 35 39 45 46 45 45 45 44 42 38 36 36 38 40 41 43 47 54 58 61 68 78 82 81 79 80 82 84 84 83 85 85 85 86 86 88 89 89 89 89 87 86 83 82 82 82 81 82 83 84 84
32 34 35 36 37 38 37 36 37 37 37 36 36 40 45 46 46 45 46 46 43 40 37 35 34 36 38 39 42 45 50 55 64 71 74 75 76 78 80 81 82 81 80 77 77 78 78 78 79 79 79 79 78 78 77 78 80 81 81 81 81 83 82
29 29 31 33 34 36 37 37 38 38 39 38 38 39 41 43 46 47 46 44 40 38 37 37 36 36 36 37 37 39 42 46 53 61 67 70 74 76 76 77 78 79 77 72 70 71 71 71 71 70 70 71 71 72 72 73 76 79 81 82 83 84 83
30 30 30 31 31 32 33 34 35 37 38 39 39 40 41 43 46 45 42 40 38 36 36 37 38 38 38 38 37 37 37 37 44 55 63 67 70 72 72 72 72 72 71 68 66 66 66 66 66 66 66 67 67 69 70 71 74 78 80 82 83 84 85
31 31 30 31 31 31 31 32 32 33 35 36 38 39 40 42 42 40 39 39 39 37 37 37 38 39 39 39 39 39 38 38 44 52 55 58 63 66 66 65 64 61 61 61 62 62 63 64 64 64 64 65 65 67 67 69 72 77 79 81 80 80 79
31 30 29 29 30 30 30 32 32 32 33 33 35 36 38 38 38 38 40 43 42 39 38 39 39 39 40 40 40 40 41 44 47 47 44 45 48 50 53 55 56 55 56 57 58 59 59 60 61 61 62 62 62 63 64 65 68 72 75 76 75 73 72
31 30 29 29 29 30 30 31 32 32 33 33 33 34 35 36 37 37 38 41 42 40 39 39 40 40 41 41 41 40 41 42 43 41 39 39 39 39 42 45 48 52 54 54 55 56 56 57 58 58 59 60 59 60 60 61 62 64 65 66 66 66 66
32 31 30 29 29 30 31 32 32 32 33 33 33 34 34 34 35 36 36 37 38 38 38 38 39 40 40 41 41 41 41 40 40 39 40 40 39 38 38 39 41 44 48 51 53 54 55 55 56 57 57 57 56 57 57 57 58 59 60 60 61 61 62
33 32 31 31 30 30 31 32 32 33 33 33 33 33 34 34 34 35 36 36 36 36 37 38 38 39 39 40 40 40 40 40 40 40 40 40 40 40 39 38 39 39 40 43 46 49 52 53 55 56 56 56 55 55 56 56 56 56 57 58 58 58 59
34 33 33 32 31 31 32 32 32 33 33 33 33 33 34 34 34 35 35 35 36 36 37 37 38 38 38 38 39 39 38 38 38 39 39 40 40 40 40 40 40 40 38 38 39 41 45 47 50 53 54 54 55 55 55 56 56 55 54 54 53 54 55
38 36 35 34 33 33 32 32 32 32 32 33 33 33 34 34 34 34 34 35 35 35 35 36 36 36 37 37 37 37 37 37 38 38 38 39 39 39 39 39 40 40 39 38 37 37 38 39 42 45 48 50 52 53 54 55 55 54 54 53 52 51 51
49 45 42 40 39 38 37 35 35 34 34 34 34 34 34 34 35 35 35 35 35 35 35 35 35 35 36 36 37 37 37 38 38 38 38 38 38 39 39 39 40 40 39 39 39 38 37 37 37 38 40 42 45 47 49 51 52 52 52 52 52 51 51
61 59 55 51 47 45 43 41 40 40 40 40 39 39 38 36 36 36 35 35 36 36 36 36 35 35 35 36 36 36 37 37 37 38 37 38 38 38 39 39 39 39 39 39 40 39 39 38 38 37 37 38 38 40 42 45 47 48 49 49 50 50 50
66 67 66 64 60 57 53 49 47 45 45 44 44 44 43 42 41 39 38 38 38 38 37 36 35 34 34 35 35 35 35 36 36 36 36 37 37 38 38 38 38 38 39 39 40 40 40 39 39 38 39 39 38 38 39 40 41 42 43 45 46 46 47
68 69 70 71 70 69 67 63 59 56 53 50 47 46 45 45 45 44 44 43 43 43 41 38 36 35 35 35 35 35 35 35 36 36 36 36 36 36 37 37 38 39 39 40 40 40 40 39 39 39 39 39 39 39 40 40 39 39 40 40 41 42 43
70 71 71 72 73 75 75 73 71 69 66 62 58 53 50 47 46 46 46 47 47 47 45 43 42 40 39 39 38 37 36 36 36 36 36 36 36 36 36 36 37 38 39 40 40 40 40 39 39 39 39 39 39 38 38 39 40 41 41 41 40 41 40
72 73 74 74 75 76 77 77 77 76 75 73 70 66 62 58 54 52 51 50 49 47 45 45 45 44 44 44 43 42 41 41 40 38 37 37 36 36 36 37 38 38 39 39 39 39 40 40 40 40 40 40 40 40 39 39 39 40 41 42 42 41 41
76 77 78 78 77 78 79 80 81 81 81 80 79 77 75 73 69 64 61 59 56 53 49 47 45 45 45 45 46 46 46 46 46 45 44 43 41 40 39 38 38 39 39 40 40 40 40 40 40 41 41 41 41 41 41 41 41 42 42 42 42 41 41
82 83 82 82 81 81 81 82 83 84 84 84 83 83 83 83 81 77 73 70 67 64 60 56 53 50 48 47 46 47 48 48 48 49 49 48 48 47 46 44 43 42 41 41 41 42 42 42 42 41 41 41 41 42 42 42 42 43 44 44 43 43 42
85 86 86 86 85 85 85 86 86 86 86 86 86 86 86 87 86 85 83 81 78 74 71 68 64 61 59 56 53 51 50 49 49 50 50 51 51 50 50 50 50 49 48 46 45 43 43 43 44 43 43 43 42 42 42 42 43 44 45 45 45 44 44